{"data":{"norad_id":63736,"intl_designator":"2025-088N","name":"KUIPER-00021","alt_names":[],"object_type":"PAYLOAD","status":"ACTIVE","operator":null,"country":"US","launch_date":"2025-04-28","launch_site_code":"AFETR","launch_vehicle":null,"mission":null,"orbit_class":"UNKNOWN","rcs_meters":null,"size_class":null,"mass_kg":null,"dimensions":null,"purposes":[],"wikipedia_slug":null,"has_3d_model":false,"image_url":null,"decayed_at":null,"tle_current":{"epoch":"2026-05-25T04:44:15.474048Z","epoch_age_seconds":51917,"freshness":"FRESH","line1":"1 63736U 25088N   26145.19740132  .00001245  00000+0  19234-3 0  9996","line2":"2 63736  51.8996 124.7416 0001299  75.5530 284.5576 14.79935354 58826","mean_motion":14.79935354,"eccentricity":0.0001299,"inclination_deg":51.8996,"raan_deg":124.7416,"arg_perigee_deg":75.553,"mean_anomaly_deg":284.5576,"bstar":0.00019234,"rev_number":5882,"period_min":97.30154740259,"perigee_km":628.61790248092,"apogee_km":630.43849389941,"semimajor_km":7007.6651981902,"source":"CELESTRAK","updated_at":"2026-05-25T13:38:03.927629Z"}}}